Flag for U.S.A. Weather past 2 weeks in Monterey, California, U.S.A.

Now
63 °F

Overcast.


Feels Like: 63 °F
Forecast: 62 / 66 °F
Wind: No wind

Location: Monterey Peninsula Airport

Current Time: Sep 21, 2014 at 7:17:08 AM

Latest Report: Sep 21, 2014 at 5:54 AM


Visibility: 10 mi

Pressure: 30.01 "Hg

Humidity: 81%

Dew point: 57 °F

Location of MontereyLocation

Historic Weather in Monterey — Graph

°F

Monterey temperature yesterday

Maximum temperature yesterday: 68 °F (at 12:54 PM)
Minimum temperature yesterday: 62 °F (at 3:54 AM)
Average temperature yesterday: 64 °F

Past Weeks' High & Low Weather Summary

 TemperatureHumidityPressure
High76 °F (Sep 18, 12:54 PM)100% (Sep 10, 6:54 AM)30.05 "Hg (Sep 10, 6:54 AM)
Low52 °F (Sep 10, 2:54 AM)43% (Sep 15, 5:54 PM)29.82 "Hg (Sep 17, 5:54 PM)
Average63 °F78%29.93 "Hg
* Reported Sep 6 5:54 AM — Sep 21 5:54 AM, Monterey, Weather by CustomWeather, © 2014

Note: Actual official high and low records may vary slightly from our data, if they occured in-between our weather recording intervals... More about our weather records

Advertising

Monterey weather history for previous 24 hours

 ConditionsComfort  
Time TempWeatherWind HumidityBarometerVisibility
5:54 AM
Sep 21
63 °FOvercast.No wind81%30.01 "Hg10 mi
4:54 AM63 °FOvercast.No wind81%30.01 "Hg10 mi
3:54 AM63 °FOvercast.3 mph81%30.01 "Hg10 mi
2:54 AM63 °FOvercast.5 mph81%29.99 "Hg10 mi
1:54 AM63 °FOvercast.5 mph81%30.00 "Hg10 mi
12:54 AM63 °FOvercast.6 mph84%30.01 "Hg10 mi
11:54 PM
Sep 20
62 °FOvercast.3 mph80%29.99 "Hg10 mi
10:54 PM63 °FClear.3 mph81%29.99 "Hg10 mi
9:54 PM64 °FPassing clouds.No wind78%29.99 "Hg10 mi
9:03 PM64 °FOvercast.No wind78%29.98 "Hg10 mi
8:54 PM64 °FOvercast.5 mph78%30.00 "Hg10 mi
7:54 PM65 °FOvercast.6 mph76%29.99 "Hg10 mi
6:54 PM65 °FOvercast.8 mph78%29.97 "Hg10 mi
5:54 PM65 °FOvercast.10 mph78%29.97 "Hg10 mi
4:54 PM66 °FPartly sunny.10 mph75%29.97 "Hg10 mi
3:54 PM67 °FPartly sunny.10 mph73%29.96 "Hg10 mi
2:54 PM68 °FOvercast.12 mph70%29.96 "Hg10 mi
1:54 PM67 °FPartly sunny.10 mph76%29.98 "Hg10 mi
12:54 PM68 °FPartly sunny.12 mph73%29.99 "Hg10 mi
11:54 AM65 °FLow clouds.5 mph81%30.00 "Hg10 mi
10:54 AM65 °FLow clouds.6 mph81%30.00 "Hg10 mi
Weather by CustomWeather, © 2014

See weather overviewHow to use our weather pages